sat.trackr.live / text

‹ back to catalog

FENGYUN 3B

NORAD 37214 · 2010-059A

PAYLOAD ACTIVE UNKNOWN

§ Identity

Operator
Country
PRC
Launch date
2010-11-04
Launch site
TAISC
Launch vehicle
Mass (kg)
RCS (m²)
6.21

Purposes: earth_obs

External: N2YO · Heavens-Above · Gunter

§ Orbital elements

Epoch: 2026-05-25T04:25:07.626720Z

Period
101.78 min
Inclination
98.9636°
Eccentricity
0.0021043
Mean motion
14.14836155 rev/d
Perigee alt
827.7 km
Apogee alt
858.1 km
Semi-major
7,221.0 km
B*
3.1079e-5
RAAN
191.0996°
Arg perigee
251.2401°
Mean anomaly
197.2720°
Rev number
80,417

§ Raw data

FENGYUN 3B1 37214U 10059A   26145.18411605  .00000015  00000+0  31079-4 0  99952 37214  98.9636 191.0996 0021043 251.2401 197.2720 14.14836155804176

JSON: /api/v1/satellites/37214 · /tle

For live sub-satellite position, see the globe view (requires WebGL).

§ Visibility from observer

Set your observer location to see the next 7 days of passes ≥ 10°. The values pass through the URL so the page stays shareable.

No JS? Fill the form by hand. The geolocation button needs JavaScript.

§ Radio — SatNOGS DB

ModeDescriptionDownlinkUplink
QPSK Mode X 8.146 GHz
AHRPT AHRPT Downlink (inactive) 1.705 GHz
BPSK Telemetry (inactive) 2.246 GHz

3 transmitters · refreshed weekly from db.satnogs.org